DEVICE NETWORK
Gateway Status
13 ESP · realtime ~1s · history 60s
Weather
WS-MOD-01
OFFLINE
Actuator
ACT-MOD-01
OFFLINE
Mainboard L3
MB-L3-01
OFFLINE
Mainboard L5
MB-L5-01
OFFLINE
Remote AC
AC-REMOTE-01
OFFLINE
PZEM L3-01
PWR-L3-01
OFFLINE
PZEM L3-02
PWR-L3-02
OFFLINE
PZEM L3-03
PWR-L3-03
OFFLINE
PZEM L3-04
PWR-L3-04
OFFLINE
PZEM L5-01
PWR-L5-01
OFFLINE
PZEM L5-02
PWR-L5-02
OFFLINE
PZEM L5-03
PWR-L5-03
OFFLINE
PZEM L5-04
PWR-L5-04
OFFLINE
REPORT FILTER
DATABASE HISTORY
Periode & Sensor
REPORT RESULT
Data Sensor
31/08/2026 — 06/09/2026
EXPORT CSV
| NO | TANGGAL | WAKTU | DEVICE | CHANNEL | SENSOR | VALUE | UNIT |
|---|---|---|---|---|---|---|---|
| 1 | 05/09/2026 | 17:27:00 | MB-L5-01Mainboard Lantai 5 | L5-AI-05 | Analog Input 5 | 3.05 | V |
| 2 | 05/09/2026 | 17:27:00 | MB-L5-01Mainboard Lantai 5 | L5-AI-04 | Analog Input 4 | 3.05 | V |
| 3 | 05/09/2026 | 17:27:00 | MB-L5-01Mainboard Lantai 5 | L5-LUX-02 | Illuminance / LUX 2 | 250.50 | lux |
| 4 | 05/09/2026 | 17:27:00 | MB-L5-01Mainboard Lantai 5 | L5-AI-03 | Analog Input 3 | 3.05 | V |
| 5 | 05/09/2026 | 17:27:00 | MB-L5-01Mainboard Lantai 5 | L5-ST-01 | Surface Temperature 1 | 29.70 | °C |
| 6 | 05/09/2026 | 17:27:00 | MB-L5-01Mainboard Lantai 5 | L5-SHT-01-T | SHT20 1 Temperature | 29.10 | °C |
| 7 | 05/09/2026 | 17:27:00 | MB-L5-01Mainboard Lantai 5 | L5-AI-02 | Analog Input 2 | 3.05 | V |
| 8 | 05/09/2026 | 17:27:00 | MB-L5-01Mainboard Lantai 5 | L5-SHT-03-RH | SHT20 3 Humidity | 39.10 | %RH |
| 9 | 05/09/2026 | 17:27:00 | MB-L5-01Mainboard Lantai 5 | L5-RAD-02 | Radiation 2 | 1.00 | W/m² |
| 10 | 05/09/2026 | 17:27:00 | MB-L5-01Mainboard Lantai 5 | L5-AI-01 | Analog Input 1 | 3.05 | V |
| 11 | 05/09/2026 | 17:27:00 | MB-L5-01Mainboard Lantai 5 | L5-LUX-06 | Illuminance / LUX 6 | 108.70 | lux |
| 12 | 05/09/2026 | 17:27:00 | MB-L5-01Mainboard Lantai 5 | L5-LUX-04 | Illuminance / LUX 4 | 66.10 | lux |
| 13 | 05/09/2026 | 17:27:00 | MB-L5-01Mainboard Lantai 5 | L5-LUX-03 | Illuminance / LUX 3 | 104.20 | lux |
| 14 | 05/09/2026 | 17:27:00 | MB-L5-01Mainboard Lantai 5 | L5-SHT-02-RH | SHT20 2 Humidity | 39.10 | %RH |
| 15 | 05/09/2026 | 17:27:00 | MB-L5-01Mainboard Lantai 5 | L5-SHT-01-RH | SHT20 1 Humidity | 37.90 | %RH |
| 16 | 05/09/2026 | 17:27:00 | MB-L5-01Mainboard Lantai 5 | L5-BGT-03 | Black Globe Temperature 3 | 28.50 | °C |
| 17 | 05/09/2026 | 17:27:00 | MB-L5-01Mainboard Lantai 5 | L5-BGT-02 | Black Globe Temperature 2 | 28.00 | °C |
| 18 | 05/09/2026 | 17:27:00 | MB-L5-01Mainboard Lantai 5 | L5-SHT-03-T | SHT20 3 Temperature | 28.90 | °C |
| 19 | 05/09/2026 | 17:27:00 | MB-L5-01Mainboard Lantai 5 | L5-LUX-05 | Illuminance / LUX 5 | 327.40 | lux |
| 20 | 05/09/2026 | 17:27:00 | MB-L5-01Mainboard Lantai 5 | L5-HFT-02 | Heat Flow Temperature 2 | 29.60 | °C |
| 21 | 05/09/2026 | 17:27:00 | MB-L5-01Mainboard Lantai 5 | L5-RAD-01 | Radiation 1 | 1.00 | W/m² |
| 22 | 05/09/2026 | 17:27:00 | MB-L5-01Mainboard Lantai 5 | L5-HFT-01 | Heat Flow Temperature 1 | 29.50 | °C |
| 23 | 05/09/2026 | 17:27:00 | MB-L5-01Mainboard Lantai 5 | L5-AI-06 | Analog Input 6 | 3.05 | V |
| 24 | 05/09/2026 | 17:27:00 | MB-L5-01Mainboard Lantai 5 | L5-SHT-02-T | SHT20 2 Temperature | 28.50 | °C |
| 25 | 05/09/2026 | 17:27:00 | MB-L5-01Mainboard Lantai 5 | L5-LUX-01 | Illuminance / LUX 1 | 60.40 | lux |
| 26 | 05/09/2026 | 17:26:00 | MB-L5-01Mainboard Lantai 5 | L5-RAD-02 | Radiation 2 | 1.00 | W/m² |
| 27 | 05/09/2026 | 17:26:00 | MB-L5-01Mainboard Lantai 5 | L5-AI-01 | Analog Input 1 | 3.05 | V |
| 28 | 05/09/2026 | 17:26:00 | MB-L5-01Mainboard Lantai 5 | L5-LUX-06 | Illuminance / LUX 6 | 108.90 | lux |
| 29 | 05/09/2026 | 17:26:00 | MB-L5-01Mainboard Lantai 5 | L5-LUX-04 | Illuminance / LUX 4 | 66.30 | lux |
| 30 | 05/09/2026 | 17:26:00 | MB-L5-01Mainboard Lantai 5 | L5-LUX-03 | Illuminance / LUX 3 | 104.40 | lux |
| 31 | 05/09/2026 | 17:26:00 | MB-L5-01Mainboard Lantai 5 | L5-SHT-02-RH | SHT20 2 Humidity | 39.10 | %RH |
| 32 | 05/09/2026 | 17:26:00 | MB-L5-01Mainboard Lantai 5 | L5-SHT-01-RH | SHT20 1 Humidity | 38.00 | %RH |
| 33 | 05/09/2026 | 17:26:00 | MB-L5-01Mainboard Lantai 5 | L5-BGT-03 | Black Globe Temperature 3 | 28.50 | °C |
| 34 | 05/09/2026 | 17:26:00 | MB-L5-01Mainboard Lantai 5 | L5-BGT-02 | Black Globe Temperature 2 | 28.00 | °C |
| 35 | 05/09/2026 | 17:26:00 | MB-L5-01Mainboard Lantai 5 | L5-SHT-03-T | SHT20 3 Temperature | 29.00 | °C |
| 36 | 05/09/2026 | 17:26:00 | MB-L5-01Mainboard Lantai 5 | L5-LUX-05 | Illuminance / LUX 5 | 328.30 | lux |
| 37 | 05/09/2026 | 17:26:00 | MB-L5-01Mainboard Lantai 5 | L5-BGT-01 | Black Globe Temperature 1 | 367.90 | °C |
| 38 | 05/09/2026 | 17:26:00 | MB-L5-01Mainboard Lantai 5 | L5-HFT-02 | Heat Flow Temperature 2 | 29.60 | °C |
| 39 | 05/09/2026 | 17:26:00 | MB-L5-01Mainboard Lantai 5 | L5-RAD-01 | Radiation 1 | 1.00 | W/m² |
| 40 | 05/09/2026 | 17:26:00 | MB-L5-01Mainboard Lantai 5 | L5-HFT-01 | Heat Flow Temperature 1 | 29.40 | °C |
| 41 | 05/09/2026 | 17:26:00 | MB-L5-01Mainboard Lantai 5 | L5-AI-06 | Analog Input 6 | 3.05 | V |
| 42 | 05/09/2026 | 17:26:00 | MB-L5-01Mainboard Lantai 5 | L5-SHT-02-T | SHT20 2 Temperature | 28.50 | °C |
| 43 | 05/09/2026 | 17:26:00 | MB-L5-01Mainboard Lantai 5 | L5-LUX-01 | Illuminance / LUX 1 | 60.60 | lux |
| 44 | 05/09/2026 | 17:26:00 | MB-L5-01Mainboard Lantai 5 | L5-AI-05 | Analog Input 5 | 3.05 | V |
| 45 | 05/09/2026 | 17:26:00 | MB-L5-01Mainboard Lantai 5 | L5-AI-04 | Analog Input 4 | 3.05 | V |
| 46 | 05/09/2026 | 17:26:00 | MB-L5-01Mainboard Lantai 5 | L5-LUX-02 | Illuminance / LUX 2 | 251.00 | lux |
| 47 | 05/09/2026 | 17:26:00 | MB-L5-01Mainboard Lantai 5 | L5-AI-03 | Analog Input 3 | 3.05 | V |
| 48 | 05/09/2026 | 17:26:00 | MB-L5-01Mainboard Lantai 5 | L5-ST-01 | Surface Temperature 1 | 29.40 | °C |
| 49 | 05/09/2026 | 17:26:00 | MB-L5-01Mainboard Lantai 5 | L5-SHT-01-T | SHT20 1 Temperature | 29.10 | °C |
| 50 | 05/09/2026 | 17:26:00 | MB-L5-01Mainboard Lantai 5 | L5-AI-02 | Analog Input 2 | 3.05 | V |
| 51 | 05/09/2026 | 17:26:00 | MB-L5-01Mainboard Lantai 5 | L5-SHT-03-RH | SHT20 3 Humidity | 39.00 | %RH |
| 52 | 05/09/2026 | 17:15:00 | MB-L5-01Mainboard Lantai 5 | L5-ST-02 | Surface Temperature 2 | 29.20 | °C |
| 53 | 05/09/2026 | 17:15:00 | MB-L5-01Mainboard Lantai 5 | L5-BGT-03 | Black Globe Temperature 3 | 28.90 | °C |
| 54 | 05/09/2026 | 17:15:00 | MB-L5-01Mainboard Lantai 5 | L5-BGT-02 | Black Globe Temperature 2 | 28.70 | °C |
| 55 | 05/09/2026 | 17:15:00 | MB-L5-01Mainboard Lantai 5 | L5-BGT-01 | Black Globe Temperature 1 | 29.10 | °C |
| 56 | 05/09/2026 | 17:15:00 | MB-L5-01Mainboard Lantai 5 | L5-HFT-02 | Heat Flow Temperature 2 | 29.30 | °C |
| 57 | 05/09/2026 | 17:15:00 | MB-L5-01Mainboard Lantai 5 | L5-HFT-01 | Heat Flow Temperature 1 | 29.30 | °C |
| 58 | 05/09/2026 | 17:15:00 | MB-L5-01Mainboard Lantai 5 | L5-AI-06 | Analog Input 6 | 3.05 | V |
| 59 | 05/09/2026 | 17:15:00 | MB-L5-01Mainboard Lantai 5 | L5-AI-05 | Analog Input 5 | 3.05 | V |
| 60 | 05/09/2026 | 17:15:00 | MB-L5-01Mainboard Lantai 5 | L5-AI-04 | Analog Input 4 | 3.05 | V |
| 61 | 05/09/2026 | 17:15:00 | MB-L5-01Mainboard Lantai 5 | L5-AI-03 | Analog Input 3 | 3.05 | V |
| 62 | 05/09/2026 | 17:15:00 | MB-L5-01Mainboard Lantai 5 | L5-ST-01 | Surface Temperature 1 | 30.80 | °C |
| 63 | 05/09/2026 | 17:15:00 | MB-L5-01Mainboard Lantai 5 | L5-AI-02 | Analog Input 2 | 3.05 | V |
| 64 | 05/09/2026 | 17:15:00 | MB-L5-01Mainboard Lantai 5 | L5-AI-01 | Analog Input 1 | 3.05 | V |
| 65 | 05/09/2026 | 17:14:00 | MB-L5-01Mainboard Lantai 5 | L5-BGT-01 | Black Globe Temperature 1 | 29.00 | °C |
| 66 | 05/09/2026 | 17:14:00 | MB-L5-01Mainboard Lantai 5 | L5-HFT-02 | Heat Flow Temperature 2 | 29.20 | °C |
| 67 | 05/09/2026 | 17:14:00 | MB-L5-01Mainboard Lantai 5 | L5-HFT-01 | Heat Flow Temperature 1 | 29.10 | °C |
| 68 | 05/09/2026 | 17:14:00 | MB-L5-01Mainboard Lantai 5 | L5-AI-06 | Analog Input 6 | 3.05 | V |
| 69 | 05/09/2026 | 17:14:00 | MB-L5-01Mainboard Lantai 5 | L5-AI-05 | Analog Input 5 | 3.05 | V |
| 70 | 05/09/2026 | 17:14:00 | MB-L5-01Mainboard Lantai 5 | L5-AI-04 | Analog Input 4 | 3.05 | V |
| 71 | 05/09/2026 | 17:14:00 | MB-L5-01Mainboard Lantai 5 | L5-AI-03 | Analog Input 3 | 3.05 | V |
| 72 | 05/09/2026 | 17:14:00 | MB-L5-01Mainboard Lantai 5 | L5-ST-01 | Surface Temperature 1 | 30.40 | °C |
| 73 | 05/09/2026 | 17:14:00 | MB-L5-01Mainboard Lantai 5 | L5-AI-02 | Analog Input 2 | 3.05 | V |
| 74 | 05/09/2026 | 17:14:00 | MB-L5-01Mainboard Lantai 5 | L5-AI-01 | Analog Input 1 | 3.05 | V |
| 75 | 05/09/2026 | 17:14:00 | MB-L5-01Mainboard Lantai 5 | L5-ST-02 | Surface Temperature 2 | 29.00 | °C |
| 76 | 05/09/2026 | 17:14:00 | MB-L5-01Mainboard Lantai 5 | L5-BGT-03 | Black Globe Temperature 3 | 29.00 | °C |
| 77 | 05/09/2026 | 17:14:00 | MB-L5-01Mainboard Lantai 5 | L5-BGT-02 | Black Globe Temperature 2 | 28.50 | °C |
| 78 | 05/09/2026 | 17:13:00 | MB-L5-01Mainboard Lantai 5 | L5-HFT-02 | Heat Flow Temperature 2 | 29.10 | °C |
| 79 | 05/09/2026 | 17:13:00 | MB-L5-01Mainboard Lantai 5 | L5-HFT-01 | Heat Flow Temperature 1 | 29.10 | °C |
| 80 | 05/09/2026 | 17:13:00 | MB-L5-01Mainboard Lantai 5 | L5-AI-06 | Analog Input 6 | 3.05 | V |
| 81 | 05/09/2026 | 17:13:00 | MB-L5-01Mainboard Lantai 5 | L5-AI-05 | Analog Input 5 | 3.05 | V |
| 82 | 05/09/2026 | 17:13:00 | MB-L5-01Mainboard Lantai 5 | L5-AI-04 | Analog Input 4 | 3.05 | V |
| 83 | 05/09/2026 | 17:13:00 | MB-L5-01Mainboard Lantai 5 | L5-AI-03 | Analog Input 3 | 3.05 | V |
| 84 | 05/09/2026 | 17:13:00 | MB-L5-01Mainboard Lantai 5 | L5-ST-01 | Surface Temperature 1 | 30.30 | °C |
| 85 | 05/09/2026 | 17:13:00 | MB-L5-01Mainboard Lantai 5 | L5-AI-02 | Analog Input 2 | 3.05 | V |
| 86 | 05/09/2026 | 17:13:00 | MB-L5-01Mainboard Lantai 5 | L5-AI-01 | Analog Input 1 | 3.05 | V |
| 87 | 05/09/2026 | 17:13:00 | MB-L5-01Mainboard Lantai 5 | L5-ST-02 | Surface Temperature 2 | 29.10 | °C |
| 88 | 05/09/2026 | 17:13:00 | MB-L5-01Mainboard Lantai 5 | L5-BGT-03 | Black Globe Temperature 3 | 28.90 | °C |
| 89 | 05/09/2026 | 17:13:00 | MB-L5-01Mainboard Lantai 5 | L5-BGT-02 | Black Globe Temperature 2 | 28.50 | °C |
| 90 | 05/09/2026 | 17:13:00 | MB-L5-01Mainboard Lantai 5 | L5-BGT-01 | Black Globe Temperature 1 | 28.90 | °C |
| 91 | 05/09/2026 | 16:35:00 | MB-L5-01Mainboard Lantai 5 | L5-SHT-02-RH | SHT20 2 Humidity | 32.60 | %RH |
| 92 | 05/09/2026 | 16:35:00 | MB-L5-01Mainboard Lantai 5 | L5-SHT-01-RH | SHT20 1 Humidity | 30.90 | %RH |
| 93 | 05/09/2026 | 16:35:00 | MB-L5-01Mainboard Lantai 5 | L5-AI-03 | Analog Input 3 | 3.05 | V |
| 94 | 05/09/2026 | 16:35:00 | MB-L5-01Mainboard Lantai 5 | L5-ST-01 | Surface Temperature 1 | 29.80 | °C |
| 95 | 05/09/2026 | 16:35:00 | MB-L5-01Mainboard Lantai 5 | L5-AI-02 | Analog Input 2 | 3.05 | V |
| 96 | 05/09/2026 | 16:35:00 | MB-L5-01Mainboard Lantai 5 | L5-AI-01 | Analog Input 1 | 3.05 | V |
| 97 | 05/09/2026 | 16:35:00 | MB-L5-01Mainboard Lantai 5 | L5-ST-02 | Surface Temperature 2 | 30.00 | °C |
| 98 | 05/09/2026 | 16:35:00 | MB-L5-01Mainboard Lantai 5 | L5-SHT-03-T | SHT20 3 Temperature | 33.10 | °C |
| 99 | 05/09/2026 | 16:35:00 | MB-L5-01Mainboard Lantai 5 | L5-BGT-03 | Black Globe Temperature 3 | 29.80 | °C |
| 100 | 05/09/2026 | 16:35:00 | MB-L5-01Mainboard Lantai 5 | L5-LUX-05 | Illuminance / LUX 5 | 4,404.90 | lux |
Menampilkan maksimal 100 data per halaman
PAGE 1
NEXT →